[Date Prev][Date Next][Thread Prev][Thread Next][Date Index][Thread Index]

[jamsat-news:1520] jas2info #23 1



========================   最新情報   ==============================

        Last updated :Sat.23JUN2001  20:20(JST)   #231
        
====================================================================
   
  1)アマチュア通信衛星情報、FOシリーズの軌道要素、テレメトリ、QSOの
   状況等をまとめてみました.
   
   FO−29の2001年6月19日(火)の19:41(JST)のパスでは
  JARLのホームページのとうりアナログ運用でした。 今週の観測した
  テレメトリーと最終の分析結果を掲載しておきます.

AS23896C   19JUN2001
10:41-10:55(JST)
Freq.435.801-.788MHz

HI HI AE C7 88 55 00 D4 29 32 09 4A 98 93    62 97 95 B0 A5 A4 A0 A1 A3 A3 
HI HI AE C7 88 55 00 D4 29 32 09 4A 8F 8D 5D 63 97 96 B0 64 A4 A0 A1 A3 A3 
HI HI AE C7 88 55 00 D4 29 32 09 4A 84 96 60 62 98 96 B0 7A A4 A0 A1 A3 A3 
HI HI AE C7 88 55 00 D4 29 32 09 4A 77 9D 60 62 98 96 B0 5B A4 A0 A1 A3 A3 
HI HI AE C7 88 55 00 D4 29 32 09 4A 6B A2 64 62 98 96 B0 85 A4 A0 A1 A3 A3 
HI HI AE C7 88 55 00 D4 29 32 09 4A 60 A2 6B 62 98 96 B0 68 A4 A0 A1 A3 A3
HI HI AE C7 88 55 00 D4 29 32 09 4A 4F 98 6D 63 98 96 B0 86 A4 A0 A1 A3 A3 
HI HI AE C7 88 55 00 D4 29 32 09 4A 4B 8C 6E 62 98 96 B0 81 A4 9F A1 A3 A3 
HI HI AE C7 88 55 00 D4 29 32 09 4A 4A 7E 69 62 98 96 B0 74 A4 9F A1 A3 A3 
HI HI AE C7 88 55 00 D4 29 32 09 4A 4C 6F 6E 63 98 96 B0 71 A4 9F A1 A3 A3 
HI HI AE C7 88 55 00 D4 29 32 09 4A 50 5F 71 62 98 96 B0 8F A3 9F A1 A3 A3 
HI HI AE C7 88 55 00 D4 26 32 09 4A 55 5O 70 63 99 96 B0 6A A3 9F A1 A3 A3 
HI HI AE C7 88 55 00 D4 29 32 09 4A 5A 47 6A 63 98 96 B0 77 A3 9F A1 A3 A3 
HI HI AE C7 88 55 00 D4 29 32 09 4A 5F 41 61 63 98 96 B0 6B A3 9F A1 A3 A3 
HI HI AE C7 88 55 00 D4 29 32 09 4A 62 3F 59 62 98 96 B0 82 A3 9F A1 A2 A2 
HI HI AE C7 88 55 00 D4 29 32 09 4A 63 40 51 63 98 96 B0 7E A3 9F A1 A2 A3 
HI HI AE C7 88 55 00 D4 29 32 09 4A 62 46 4B 63 98 96 AE 7E A3 9F A1 A2 A3 
HI HI AE C7 88 55 00 D4 29 32 09 4A 5F 4C 43 67 96 94 A3 7B A3 9F A0 A2 A2 

AS23883C  18JUN2001
20:32-20:52(JST)
FREQ.435.804-.787MHz

HI HI AE C7 88 55 00 D4 F9 BF 09 5E AO 95 57 62 98 96 B0 76 A6 A4 A7 A6 A7 
HI HI AE C7 88 55 00 D4 F9 BF 09 5E 9F 97 55 63 98 96 B0 79 A6 A4 A7 A6 A7 
HI HI AE C7 88 55 00 D4 F9 BF 09 5E 9C 9A 57 63 98 96 B0 7B A6 A4 A7 A6 A7 
HI HI AE C7 88 55 00 D4 F9 BF 09 5E 98 9E 5F 63 98 96 B0 5F A6 A4 A7 A6 A7 
HI HI AE C7 88 55 00 D4 F9 BF 09 5E 93 A1 64 63 98 96 B0 74 A6 A4 A7 A6 A7 
HI HI AE C7 88 55 00 D4 F9 BF 09 5E 8D A5 69 63 98 96 B0 81 A6 A4 A7 A6 A7 
HI HI AE C7 88 55 00 D4 F9 BF 09 5E 86 A9 6D 62 99 96 B0 83 A5 A4 A7 A5 A7 
HI HI AE C7 88 55 00 D4 F9 BF 09 5E 7F AB 6E 62 98 96 B0 86 A5 A4 A7 A5 A7 
HI HI AE C7 88 55 00 D4 F9 BF 09 5E 77 AB 6D 62 98 96 B0 89 A5 A4 A7 A5 A7 
HI HI AE C7 88 55 00 D4 F9 BF 09 5E 6F A9 6D 63 98 96 B0 86 A5 A4 A7 A5 A7 
HI HI AE C7 78 55 00 D4 F9 BF 09 5E 67 A4 66 63 99 97 B0 86 A5 A4 A7 A5 A7
HI HI AE C7 88 55 00 D4 F9 BF 09 5E 59       63 99 97 B0 8E A5 A4 A7 A5 A7 
HI HI AE C7 88 55 00 D4 F9 BF 09 5E 57 A4 58 63 99 96 B0 8C A5 A4 A7 A5 A7 
HI HI AE C7 88 55 00 D4 F9 BF 09 5E 52 87 89 63 98 96 B0 6C A5 A4 A7 A5 A7 
HI HI AE C7 88 55 00 D4 F9 BF 09 5E 52       63 99 97 B0 6E A5 A4 A7 A5 A7 
HI HI AE C7 88 55 00 D4 F9 BF 09 5E 52 6F 6F 62 99 97 B0 66 A4 A4 A7 A5 A7 
HI HI AE C7 88 55 00 D4 F9 BF 09 5E 52 66 6D 63 99 97 B0 66 A4 A4 A7 A5 A7 
HI HI AE C7 88 55 00 D4 F9 BF 09 5E 54 56 6C 63 99 97 B0 87 A4 A4 A7 A5 A7 
HI HI AE C7 88 55 00 D4 F9 BF 09 5E 55 4C 65 63 99 97 B0 55 A4 A4 A7 A5 A7 
HI HI AE C7 88 55 00 D4 F9 BF 09 5E 58 45 5C 63 99 97 B0 71 E4 A4 A7 A4 A7 
HI HI AE C7 88 55 00 D4 F9 BF 09 5E 5A 43 54 63 99 97 B0 A1 A4 A4 A7 A4 A7 
HI HI AE C7 88 55 00 D4 F9 BF 09 5E 5C 3E 51 63 98 97 B0 9E A4 A4 A6 A4 A7 
HI HI AE C7 88 55 00 D4 F9 BF 09 5E 5E 3F 4C 63 99 97 AF 7C A4 A4 A7 A4 A7 
HI HI AE C7 88 55 00 D4 F9 BF 09 5E 5E 40 4A 63 98 96 AD 70 A4 A4 A6 A4 A7 
HI HI AE C7 88 55 00 D4 F9 BF 09 5E 5E 42 48 64 97 95 AA 73 A4 A4 A6 A4 A7 
HI HI AE C7 88 55 00 D4 F9 BF 09 5E 5E 45 4C 63 97 95 AF 74 A4 A4 A6 A4 A7 
HI HI AE C7 88 55 00 D5 F9 BF 09 5E 5D 47 54 63 98 96 B0 C8 A4 A4 A6 A4 A7 
HI HI AE C7 88 55 00 D4 F9 BF 09 5E 5C 49 58 63 98 96 B0 82 A4 A4 A6 A4 A7 
HI HI AE C7 88 55 00 D4 F9 BF 09 5E 5B 49 60 63 98 95 B0 7E A4 A4 A6 A4 A7 

 ------------------------ FO-29の軌道要素 ------------------------------        
 
  ■ 軌道要素1:「jamsat−keps:1012」より         
          SB KEPS @ AMSAT  $ORB01172.N
          2Line Orbital Elements 01172.AMSAT

HR AMSAT ORBITAL ELEMENTS FOR AMATEUR SATELLITES IN NASA FORMAT
FROM WA5QGD FORT WORTH,TX June 21, 2001
SEND SUBSCRIBE/UNSUBSCRIBE TO majordomo@amsat.org ONLY
BID: ORB01172.N

 DECODE 2-LINE ELSETS WITH THE FOLLOWING KEY:
 1 AAAAAU 00  0  0 BBBBB.BBBBBBBB  .CCCCCCCC  00000-0  00000-0 0  DDDZ
 2 AAAAA EEE.EEEE FFF.FFFF GGGGGGG HHH.HHHH III.IIII JJ.JJJJJJJJKKKKKZ
 KEY: A-CATALOGNUM B-EPOCHTIME C-DECAY D-ELSETNUM E-INCLINATION F-RAAN
 G-ECCENTRICITY H-ARGPERIGEE I-MNANOM J-MNMOTION K-ORBITNUM Z-CHECKSUM

FO-29
1 24278U 96046B   01171.67588120  .00000021  00000-0  58454-4 0 04320
2 24278 098.5434 036.4222 0351392 352.9590 006.6679 13.52775340239110

 ■ 軌道要素2:「jamsat−keps:1013」より
        SB KEPS @ AMSAT  $ORB01172.O
        Orbital Elements  01172.OSCAR

HR AMSAT ORBITAL ELEMENTS FOR OSCAR SATELLITES
FROM WA5QGD FORT WORTH,TX June 21, 2001
SEND SUBSCRIBE/UNSUBSCRIBE TO majordomo@amsat.org ONLY
BID: ORB01172.O
TO ALL RADIO AMATEURS BT
 
Satellite: FO-29
Catalog number: 24278
Epoch time:      01171.67588120
Element set:    0432
Inclination:      098.5434 deg
RA of node:       036.4222 deg
Eccentricity:    0.0351392
Arg of perigee:   352.9590 deg
Mean anomaly:     006.6679 deg
Mean motion:   13.52775340 rev/day
Decay rate:        2.1e-07 rev/day^2
Epoch rev:           23911
Checksum:              299

-------------------  FO-29(JAS-2)のテレメトリに関する情報  ---------------------- 
 
2)上記6月19日(火)のテレメトリの最終行を分析しておきます.

AS23896C   19JUN2001
10:41-10:55(JST)
Freq.435.801-.788MHz

HI HI AE C7 88 55 00 D4 29 32 09 4A 5F 4C 43 67 96 94 A3 7B A3 9F A0 A2 A2 

**最終行

テレメトリ   内 容       換算算値 単 位  
3C	磁気センサーZ軸=	46568.6	[nT]
3D	磁気センサX軸	=	37254.9	[nT]
4A	太陽電池発生電流=	 656.9	[mA]
4B	B充放電電流	=	  18.8	[mA]
4C	B端子電圧	=	   16.1	[V]
4D	B中間端子電圧	=	    7.1	[V]
5A	バス電圧	=	   16.0	[V]
5B	JTA送信電力	=	  701.4	[mW]
5C 	構体温度1	=	   18.6	[℃]
5D	構体温度2	=	   20.1	[℃]
6A	構体温度3	=	   19.7	[℃]
6B	構体温度4	=	   19.0	[℃]
6C	Bセル温度	=	   19.0	[℃]
   	
 ========================== FO-29(ふじ3号)のQSO情報等 ======================
   
 3)[jamsat-bb:

 ===============================================================================
   4)JARL のホームページに運用予定が記載されていましたのでご紹介します.
       ( http://www.jarl.or.jp/Japanese/3_Fuji/new/uy.htm )

        ■ ふじ3号/FOー29/JAS-2 ■  
   
     *** 運用予定について ***

     4月2日 〜 7月2日 アナログ系運用

  *なお,運用予定は都合により変更することがありますので予めご了承願います。

 照会先 : lab@jarl.or.jp

 最新の情報はテレホンサービス(03−3942−1000)をお聞きください。  
 以後の運用につきましては平成13年7月上旬にお知らせ致します。    
    
-----------------------    FO−20(JAS-1b)道要素   -------------------------
  5)
  ■ 軌道要素1 :出典はFO-29「ふじ3号」に同じ.
  
FO-20
1 20480U 90013C   01157.72338904 -.00000062  00000-0 -61105-4 0 03246
2 20480 099.0608 228.0977 0540624 332.9607 024.4246 12.83292347530757
 
  ■ 軌道要素2 :出典はFO−29「ふじ3号」に同じ.
               
Satellite: FO-20
Catalog number: 20480
Epoch time:      01157.72338904
Element set:    0324
Inclination:      099.0608 deg
RA of node:       228.0977 deg
Eccentricity:    0.0540624
Arg of perigee:   332.9607 deg
Mean anomaly:     024.4246 deg
Mean motion:   12.83292347 rev/day
Decay rate:       -6.2e-07 rev/day^2
Epoch rev:           53075
Checksum:              296 
 --------------------------------------------------------------------------------
 
         ■ ふじ2号/FO−20/JAS-1b ■      
            
          「ふじ2号」 現況                                                                                  
             
   JAS-1b(ふじ2号)のCWテレメトリ信号に,1997年10月12日12時(JST)の
 日本上空通過時,3桁の数字が繰り返されるはずが3個の長音の繰り返しとなっているという
 異常が発見されました。この不具合は次の通過時からは回復していましたが13日15時20分の
 通過時に再び観測されました。現在はA0の送信が続いています。衛星のアナログ系中継モード
 動作は異常が無く,正常時のテレメトリ内容からは衛星の動作に異常は認められません。従って,
 直ちに衛星のミッションに影響することは無いと予想されますので,当面はアナログ系中継
 モードを継続します。衛星は既に打ち上げてから7年8ヶ月を経ておりますので,今後は監視を
 強化する予定です。アマチュア各位のレポートをお待ちします。
 -------------------------------------------------------------------------------- 
  1997年10月14日 00時35分 確認のテレメトリ音 151 KB (A0) 
  1997年10月14日 11時10分 確認のテレメトリ音 216 KB (異常キーイング) 

  以上 JARLのホ−ムページの http://www.jarl.or.jp/Japanese/3_Fuji/new/fuji.htm

===================== FO-20 ふじ2号 のテレメトリ観測結果 ====================

   5月29日(金)の観測結果では以前観測した単一周波数のドップラー効果で
 周波数がずれていくのみの状態でした。
                                         
   =============   JAS-2 (ふじ3号)と現在までの情報   ===========
  
  A.電話によるふじ3号の運用情報
      社団法人日本アマチュア連盟によるサービス
           TEL .   03− 3942 − 1000
  B.アマチュア無線FAXサービス
      JARLによるふじ3号の軌道情報(オービットカレンダー)
         FAX No.  03− 3233 −0055
  C.WWWブラウザで情報を簡単に見れる人のためにJAS−2
     ふじ3号の衛星としての運用されるまでの名前)の概要、打ち上げ
     までの状況、運用中における状況を説明したホームページを紹介し
     ておきます.
     社団法人日本アマチュア無線連盟(JARL)のホームページ

          http://www.jarl.or.jp/Japanese/3_Fuji/jasmenu.htm
 
     宇宙開発事業団(NASDA)ホームページ 
          http://www.nasda.go.jp/
         打上げ衛星 :地球観測プラットフォーム技術衛星(ADEOS) 
                       アマチュア衛星3号(JAS-2)
          http://spaceboy.nasda.go.jp/note/eisei/j/Eis15h_j.html#Eis15h_01_j
     http://spaceboy.nasda.go.jp/note/eisei/j/Eis15i_j.html        

  D.JAMSATによる軌道情報の活用
        JAMSATのホームページまたはjamsat−kepsの軌道要素より
      衛星の軌道情報を得る.
     JAMSATホームページ
               URL    http://www.jamsat.or.jp
       上記ホームページでは各地で行われるアマチュア通信衛星に関する
      ミューティングのお知らせや世界のアマチュア衛星に関する情報が
      満載されています.
 ========================================================================  
     JAMSATのメンバーのご協力によりJH6MME(高山 秀造)が
    執筆・編集を担当しております.ご指摘の意見、疑問やこのようにしたら
    というアイデアがありましたら小さなことでもかまいませんので気軽に下
    記アドレスまでご連絡ください.jamsat−newsからjas2
    infoへの転載をJH4PHW局坂井さんに担当して頂いております.  
                  E-mail : jh6mme@jamsat.or.jp : jh4phw@jamsat.or.jp
 ===============================   END  ===============================